Location: Mentone
(34.5413°N, 85.5351°W)
Time: 02:57:31
(UTC-05:00)

Vanguard 1 - Visible Passes

Search period start: 25 August 2016 00:00
Search period end: 04 September 2016 00:00
Orbit: 649 x 3835 km, 34.2° (Epoch: 23 August)

Date Brightness Start Highest point End Pass type
(mag) Time Alt. Az. Time Alt. Az. Time Alt. Az.
25 Aug 12.6 00:34:20 10° WNW 00:41:55 30° W 00:41:55 30° W visible
25 Aug 12.5 19:58:25 10° WSW 20:21:57 87° S 20:36:06 12° E visible
25 Aug 11.5 22:27:37 10° W 22:47:10 82° SSW 22:48:47 73° SE visible
26 Aug 12.9 00:56:25 10° WNW 01:01:29 22° W 01:01:29 22° W visible
26 Aug 12.4 20:20:24 10° W 20:43:43 89° S 20:55:40 20° E visible
26 Aug 11.6 22:49:40 10° WNW 23:08:21 74° SSW 23:08:21 74° SSW visible
27 Aug 13.3 01:18:44 10° W 01:21:03 15° W 01:21:03 15° W visible
27 Aug 12.3 20:42:27 10° W 21:05:28 89° S 21:15:14 28° E visible
27 Aug 11.9 23:11:42 10° WNW 23:27:55 61° WSW 23:27:55 61° WSW visible
28 Aug 12.1 21:04:32 10° W 21:27:10 87° S 21:34:47 38° ESE visible
28 Aug 12.2 23:33:45 10° WNW 23:47:28 47° WSW 23:47:28 47° WSW visible
29 Aug 12.9 18:58:04 10° WSW 19:22:12 88° S 19:39:48 10° E visible
29 Aug 11.9 21:26:36 10° W 21:48:45 82° SSW 21:54:21 49° ESE visible
29 Aug 12.6 23:55:53 10° WNW 00:07:02 35° WSW 00:07:02 35° WSW visible
30 Aug 12.8 19:19:57 10° W 19:44:06 89° S 20:01:09 10° E visible
30 Aug 11.8 21:48:39 10° WNW 22:10:12 75° SSW 22:13:55 58° SE visible
31 Aug 13.0 00:18:17 10° W 00:26:36 26° W 00:26:36 26° W visible
31 Aug 12.7 19:41:54 10° W 20:06:00 89° S 20:20:48 16° E visible
31 Aug 11.9 22:10:41 10° WNW 22:31:27 66° SSW 22:33:29 62° S visible
01 Sep 13.3 00:41:08 10° W 00:46:11 18° W 00:46:11 18° W visible
01 Sep 12.6 20:03:52 10° W 20:27:51 87° S 20:40:24 23° ESE visible
01 Sep 12.1 22:32:45 10° WNW 22:52:30 56° SW 22:53:05 56° SSW visible
02 Sep 13.6 01:04:58 10° W 01:05:46 11° W 01:05:46 11° W visible
02 Sep 12.4 20:25:51 10° W 20:49:34 82° SSW 21:00:00 31° ESE visible
02 Sep 12.4 22:54:56 10° WNW 23:12:42 46° SW 23:12:42 46° SW visible
03 Sep 12.3 20:47:49 10° WNW 21:11:08 75° SSW 21:19:38 38° SE visible
03 Sep 12.7 23:17:20 10° WNW 23:32:20 35° WSW 23:32:20 35° WSW visible
